This is the latest recevied weather packets stored in our database for station/object DO1SC. If no packets are shown the sender has not sent any weather packets the latest 10 day(s).
| Time | Temp. | Humidity | Pressure | Rain* | Wind** | Luminosity | Snow |
|---|---|---|---|---|---|---|---|
| 1777639522 | 17.78° C | 39% | 1028.9 hPa | - | - | 632 W/m² | - |
| 1777638933 | 17.78° C | 38% | 1029 hPa | - | - | 643 W/m² | - |
| 1777638324 | 17.22° C | 39% | 1029.2 hPa | - | - | 650 W/m² | - |
| 1777637736 | 17.78° C | 38% | 1029.2 hPa | - | - | 659 W/m² | - |
| 1777637126 | 17.22° C | 38% | 1029.2 hPa | - | - | 663 W/m² | - |
| 1777636518 | 17.22° C | 40% | 1029.3 hPa | - | - | 669 W/m² | - |
| 1777635933 | 17.22° C | 38% | 1029.4 hPa | - | - | 675 W/m² | - |
| 1777635321 | 17.22° C | 38% | 1029.4 hPa | - | - | 678 W/m² | - |
| 1777634730 | 16.67° C | 41% | 1029.6 hPa | - | - | 678 W/m² | - |
| 1777634121 | 16.67° C | 42% | 1029.7 hPa | - | - | 665 W/m² | - |
| 1777633533 | 16.67° C | 40% | 1029.7 hPa | - | - | 676 W/m² | - |
| 1777632925 | 17.22° C | 38% | 1029.7 hPa | - | - | 666 W/m² | - |
| 1777632317 | 16.11° C | 43% | 1029.9 hPa | - | - | 658 W/m² | - |
| 1777631727 | 16.11° C | 43% | 1030 hPa | - | - | 639 W/m² | - |
| 1777631118 | 16.11° C | 42% | 1030.1 hPa | - | - | 579 W/m² | - |
| 1777630530 | 16.11° C | 43% | 1030 hPa | - | - | 591 W/m² | - |
| 1777629922 | 15.56° C | 42% | 1030.1 hPa | - | - | 627 W/m² | - |
| 1777629333 | 16.11° C | 44% | 1030.2 hPa | - | - | 586 W/m² | - |
| 1777628725 | 15° C | 44% | 1030.3 hPa | - | - | 606 W/m² | - |
| 1777628119 | 15° C | 44% | 1030.2 hPa | - | - | 598 W/m² | - |
| 1777627528 | 15.56° C | 43% | 1030.4 hPa | - | - | 590 W/m² | - |
| 1777626920 | 14.44° C | 44% | 1030.4 hPa | - | - | 566 W/m² | - |
| 1777626331 | 14.44° C | 46% | 1030.6 hPa | - | - | 548 W/m² | - |
| 1777625723 | 14.44° C | 45% | 1030.6 hPa | - | - | 516 W/m² | - |
| 1777625135 | 14.44° C | 46% | 1030.6 hPa | - | - | 332 W/m² | - |
* Rain since midnight (hover to see other rain measurements)
** Current wind speed in m/s (hover to see current wind gust speed)